Year,Month,Day,Hour,Minute,Value (Times are PST for temperature in C)
2015,06,29,00,00,21.90
2015,06,29,00,01,21.90
2015,06,29,00,02,21.80
2015,06,29,00,03,21.80
2015,06,29,00,04,21.80
2015,06,29,00,05,21.70
2015,06,29,00,06,21.70
2015,06,29,00,07,21.60
2015,06,29,00,08,21.60
2015,06,29,00,09,21.60
2015,06,29,00,10,21.60
2015,06,29,00,11,21.50
2015,06,29,00,12,21.50
2015,06,29,00,13,21.50
2015,06,29,00,14,21.50
2015,06,29,00,15,21.50
2015,06,29,00,16,21.50
2015,06,29,00,17,21.50
2015,06,29,00,18,21.50
2015,06,29,00,19,21.50
2015,06,29,00,20,21.60
2015,06,29,00,21,21.60
2015,06,29,00,22,21.60
2015,06,29,00,23,21.60
2015,06,29,00,24,21.60
2015,06,29,00,25,21.60
2015,06,29,00,26,21.60
2015,06,29,00,27,21.60
2015,06,29,00,28,21.60
2015,06,29,00,29,21.60
2015,06,29,00,30,21.60
2015,06,29,00,31,21.60
2015,06,29,00,32,21.60
2015,06,29,00,33,21.60
2015,06,29,00,34,21.60
2015,06,29,00,35,21.60
2015,06,29,00,36,21.60
2015,06,29,00,37,21.60
2015,06,29,00,38,21.60
2015,06,29,00,39,21.60
2015,06,29,00,40,21.60
2015,06,29,00,41,21.60
2015,06,29,00,42,21.60
2015,06,29,00,43,21.60
2015,06,29,00,44,21.60
2015,06,29,00,45,21.60
2015,06,29,00,46,21.60
2015,06,29,00,47,21.60
2015,06,29,00,48,21.60
2015,06,29,00,49,21.60
2015,06,29,00,50,21.60
2015,06,29,00,51,21.60
2015,06,29,00,52,21.60
2015,06,29,00,53,21.60
2015,06,29,00,54,21.60
2015,06,29,00,55,21.60
2015,06,29,00,56,21.50
2015,06,29,00,57,21.50
2015,06,29,00,58,21.50
2015,06,29,00,59,21.50
2015,06,29,01,00,21.60
2015,06,29,01,01,21.60
2015,06,29,01,02,21.50
2015,06,29,01,03,21.50
2015,06,29,01,04,21.50
2015,06,29,01,05,21.50
2015,06,29,01,06,21.50
2015,06,29,01,07,21.40
2015,06,29,01,08,21.40
2015,06,29,01,09,21.40
2015,06,29,01,10,21.40
2015,06,29,01,11,21.40
2015,06,29,01,12,21.40
2015,06,29,01,13,21.40
2015,06,29,01,14,21.40
2015,06,29,01,15,21.40
2015,06,29,01,16,21.40
2015,06,29,01,17,21.40
2015,06,29,01,18,21.40
2015,06,29,01,19,21.40
2015,06,29,01,20,21.40
2015,06,29,01,21,21.50
2015,06,29,01,22,21.50
2015,06,29,01,23,21.60
2015,06,29,01,24,21.60
2015,06,29,01,25,21.60
2015,06,29,01,26,21.60
2015,06,29,01,27,21.60
2015,06,29,01,28,21.60
2015,06,29,01,29,21.60
2015,06,29,01,30,21.60
2015,06,29,01,31,21.60
2015,06,29,01,32,21.60
2015,06,29,01,33,21.60
2015,06,29,01,34,21.60
2015,06,29,01,35,21.60
2015,06,29,01,36,21.60
2015,06,29,01,37,21.50
2015,06,29,01,38,21.50
2015,06,29,01,39,21.50
2015,06,29,01,40,21.50
2015,06,29,01,41,21.40
2015,06,29,01,42,21.40
2015,06,29,01,43,21.40
2015,06,29,01,44,21.40
2015,06,29,01,45,21.40
2015,06,29,01,46,21.30
2015,06,29,01,47,21.30
2015,06,29,01,48,21.30
2015,06,29,01,49,21.30
2015,06,29,01,50,21.30
2015,06,29,01,51,21.30
2015,06,29,01,52,21.30
2015,06,29,01,53,21.20
2015,06,29,01,54,21.20
2015,06,29,01,55,21.20
2015,06,29,01,56,21.20
2015,06,29,01,57,21.20
2015,06,29,01,58,21.20
2015,06,29,01,59,21.20
2015,06,29,02,00,21.20
2015,06,29,02,01,21.20
2015,06,29,02,02,21.10
2015,06,29,02,03,21.10
2015,06,29,02,04,21.10
2015,06,29,02,05,21.10
2015,06,29,02,06,21.10
2015,06,29,02,07,21.10
2015,06,29,02,08,21.10
2015,06,29,02,09,21.00
2015,06,29,02,10,21.00
2015,06,29,02,11,21.00
2015,06,29,02,12,21.00
2015,06,29,02,13,21.00
2015,06,29,02,14,21.00
2015,06,29,02,15,20.90
2015,06,29,02,16,20.90
2015,06,29,02,17,20.90
2015,06,29,02,18,20.90
2015,06,29,02,19,20.90
2015,06,29,02,20,20.90
2015,06,29,02,21,20.90
2015,06,29,02,22,20.90
2015,06,29,02,23,21.00
2015,06,29,02,24,21.00
2015,06,29,02,25,21.00
2015,06,29,02,26,21.00
2015,06,29,02,27,21.10
2015,06,29,02,28,21.10
2015,06,29,02,29,21.10
2015,06,29,02,30,21.20
2015,06,29,02,31,21.20
2015,06,29,02,32,21.30
2015,06,29,02,33,21.30
2015,06,29,02,34,21.30
2015,06,29,02,35,21.40
2015,06,29,02,36,21.40
2015,06,29,02,37,21.30
2015,06,29,02,38,21.30
2015,06,29,02,39,21.30
2015,06,29,02,40,21.30
2015,06,29,02,41,21.30
2015,06,29,02,42,21.30
2015,06,29,02,43,21.30
2015,06,29,02,44,21.30
2015,06,29,02,45,21.30
2015,06,29,02,46,21.30
2015,06,29,02,47,21.30
2015,06,29,02,48,21.30
2015,06,29,02,49,21.30
2015,06,29,02,50,21.30
2015,06,29,02,51,21.20
2015,06,29,02,52,21.20
2015,06,29,02,53,21.20
2015,06,29,02,54,21.20
2015,06,29,02,55,21.10
2015,06,29,02,56,21.10
2015,06,29,02,57,21.10
2015,06,29,02,58,21.00
2015,06,29,02,59,21.00
2015,06,29,03,00,21.00
2015,06,29,03,01,21.00
2015,06,29,03,02,21.00
2015,06,29,03,03,20.90
2015,06,29,03,04,20.90
2015,06,29,03,05,20.90
2015,06,29,03,06,20.90
2015,06,29,03,07,20.90
2015,06,29,03,08,20.80
2015,06,29,03,09,20.80
2015,06,29,03,10,20.80
2015,06,29,03,11,20.80
2015,06,29,03,12,20.70
2015,06,29,03,13,20.70
2015,06,29,03,14,20.70
2015,06,29,03,15,20.70
2015,06,29,03,16,20.70
2015,06,29,03,17,20.60
2015,06,29,03,18,20.60
2015,06,29,03,19,20.60
2015,06,29,03,20,20.50
2015,06,29,03,21,20.50
2015,06,29,03,22,20.40
2015,06,29,03,23,20.40
2015,06,29,03,24,20.40
2015,06,29,03,25,20.40
2015,06,29,03,26,20.30
2015,06,29,03,27,20.30
2015,06,29,03,28,20.30
2015,06,29,03,29,20.30
2015,06,29,03,30,20.20
2015,06,29,03,31,20.20
2015,06,29,03,32,20.20
2015,06,29,03,33,20.20
2015,06,29,03,34,20.20
2015,06,29,03,35,20.20
2015,06,29,03,36,20.20
2015,06,29,03,37,20.10
2015,06,29,03,38,20.10
2015,06,29,03,39,20.10
2015,06,29,03,40,20.10
2015,06,29,03,41,20.20
2015,06,29,03,42,20.20
2015,06,29,03,43,20.30
2015,06,29,03,44,20.30
2015,06,29,03,45,20.40
2015,06,29,03,46,20.40
2015,06,29,03,47,20.40
2015,06,29,03,48,20.40
2015,06,29,03,49,20.50
2015,06,29,03,50,20.50
2015,06,29,03,51,20.60
2015,06,29,03,52,20.60
2015,06,29,03,53,20.60
2015,06,29,03,54,20.50
2015,06,29,03,55,20.50
2015,06,29,03,56,20.50
2015,06,29,03,57,20.50
2015,06,29,03,58,20.50
2015,06,29,03,59,20.50
2015,06,29,04,00,20.40
2015,06,29,04,01,20.40
2015,06,29,04,02,20.40
2015,06,29,04,03,20.40
2015,06,29,04,04,20.50
2015,06,29,04,05,20.50
2015,06,29,04,06,20.60
2015,06,29,04,07,20.60
2015,06,29,05,02,20.10
2015,06,29,05,03,20.10
2015,06,29,05,04,20.10
2015,06,29,05,05,20.10
2015,06,29,05,06,20.20
2015,06,29,05,07,20.20
2015,06,29,05,08,20.20
2015,06,29,05,09,20.30
2015,06,29,05,10,20.30
2015,06,29,05,11,20.40
2015,06,29,05,12,20.40
2015,06,29,05,13,20.50
2015,06,29,05,14,20.50
2015,06,29,05,15,20.60
2015,06,29,05,16,20.60
2015,06,29,05,17,20.60
2015,06,29,05,18,20.60
2015,06,29,05,19,20.60
2015,06,29,05,20,20.60
2015,06,29,05,21,20.60
2015,06,29,05,22,20.60
2015,06,29,05,23,20.70
2015,06,29,05,24,20.70
2015,06,29,05,25,20.70
2015,06,29,05,26,20.70
2015,06,29,05,27,20.60
2015,06,29,05,28,20.60
2015,06,29,05,29,20.60
2015,06,29,05,30,20.60
2015,06,29,05,31,20.50
2015,06,29,05,32,20.50
2015,06,29,05,33,20.50
2015,06,29,05,34,20.50
2015,06,29,05,35,20.40
2015,06,29,05,36,20.40
2015,06,29,05,37,20.40
2015,06,29,05,38,20.40
2015,06,29,05,39,20.40
2015,06,29,05,40,20.40
2015,06,29,05,41,20.30
2015,06,29,05,42,20.30
2015,06,29,05,43,20.30
2015,06,29,05,44,20.30
2015,06,29,05,45,20.30
2015,06,29,05,46,20.30
2015,06,29,05,47,20.30
2015,06,29,05,48,20.30
2015,06,29,05,49,20.30
2015,06,29,05,50,20.30
2015,06,29,05,51,20.30
2015,06,29,05,52,20.30
2015,06,29,05,53,20.30
2015,06,29,05,54,20.30
2015,06,29,05,55,20.30
2015,06,29,05,56,20.30
2015,06,29,05,57,20.20
2015,06,29,05,58,20.20
2015,06,29,05,59,20.20
2015,06,29,06,00,20.20
2015,06,29,06,01,20.20
2015,06,29,06,02,20.20
2015,06,29,06,03,20.20
2015,06,29,06,04,20.20
2015,06,29,06,05,20.20
2015,06,29,06,06,20.20
2015,06,29,06,07,20.20
2015,06,29,06,08,20.20
2015,06,29,06,09,20.20
2015,06,29,06,10,20.20
2015,06,29,06,11,20.20
2015,06,29,06,12,20.20
2015,06,29,06,13,20.20
2015,06,29,06,14,20.20
2015,06,29,06,15,20.10
2015,06,29,06,16,20.10
2015,06,29,06,17,20.10
2015,06,29,06,18,20.00
2015,06,29,06,19,20.00
2015,06,29,06,20,19.90
2015,06,29,06,21,19.90
2015,06,29,06,22,19.90
2015,06,29,06,23,19.90
2015,06,29,06,24,19.90
2015,06,29,06,25,19.90
2015,06,29,06,26,19.90
2015,06,29,06,27,19.90
2015,06,29,06,28,19.90
2015,06,29,06,29,19.90
2015,06,29,06,30,19.90
2015,06,29,06,31,19.90
2015,06,29,06,32,19.90
2015,06,29,06,33,19.90
2015,06,29,06,34,19.80
2015,06,29,06,35,19.80
2015,06,29,06,36,19.80
2015,06,29,06,37,19.80
2015,06,29,06,38,19.80
2015,06,29,06,39,19.90
2015,06,29,06,40,19.90
2015,06,29,06,41,19.90
2015,06,29,06,42,19.90
2015,06,29,06,43,19.90
2015,06,29,06,44,19.90
2015,06,29,06,45,19.90
2015,06,29,06,46,19.90
2015,06,29,06,47,19.90
2015,06,29,06,48,19.90
2015,06,29,06,49,19.90
2015,06,29,06,50,19.90
2015,06,29,06,51,19.90
2015,06,29,06,52,19.90
2015,06,29,06,53,19.90
2015,06,29,06,54,19.90
2015,06,29,06,55,19.90
2015,06,29,06,56,19.90
2015,06,29,06,57,19.90
2015,06,29,06,58,19.90
2015,06,29,06,59,19.90
2015,06,29,07,00,19.90
2015,06,29,07,01,20.00
2015,06,29,07,02,20.00
2015,06,29,07,03,20.00
2015,06,29,07,04,20.00
2015,06,29,07,05,20.10
2015,06,29,07,06,20.10
2015,06,29,07,07,20.10
2015,06,29,07,08,20.10
2015,06,29,07,09,20.10
2015,06,29,07,10,20.20
2015,06,29,07,11,20.20
2015,06,29,07,12,20.20
2015,06,29,07,13,20.20
2015,06,29,07,14,20.20
2015,06,29,07,15,20.20
2015,06,29,07,16,20.20
2015,06,29,07,17,20.20
2015,06,29,07,18,20.20
2015,06,29,07,19,20.30
2015,06,29,07,20,20.30
2015,06,29,07,21,20.30
2015,06,29,07,22,20.30
2015,06,29,07,23,20.30
2015,06,29,07,24,20.30
2015,06,29,07,25,20.30
2015,06,29,07,26,20.30
2015,06,29,07,27,20.30
2015,06,29,07,28,20.30
2015,06,29,07,29,20.30
2015,06,29,07,30,20.40
2015,06,29,07,31,20.40
2015,06,29,07,32,20.40
2015,06,29,07,33,20.50
2015,06,29,07,34,20.50
2015,06,29,07,35,20.60
2015,06,29,07,36,20.60
2015,06,29,07,37,20.60
2015,06,29,07,38,20.70
2015,06,29,07,39,20.70
2015,06,29,07,40,20.80
2015,06,29,07,41,20.80
2015,06,29,07,42,20.90
2015,06,29,07,43,20.90
2015,06,29,07,44,21.00
2015,06,29,07,45,21.10
2015,06,29,07,46,21.10
2015,06,29,07,47,21.20
2015,06,29,07,48,21.30
2015,06,29,07,49,21.30
2015,06,29,07,50,21.40
2015,06,29,07,51,21.40
2015,06,29,07,52,21.50
2015,06,29,07,53,21.50
2015,06,29,07,54,21.60
2015,06,29,07,55,21.60
2015,06,29,07,56,21.60
2015,06,29,07,57,21.70
2015,06,29,07,58,21.70
2015,06,29,07,59,21.70
2015,06,29,08,00,21.80
2015,06,29,08,01,21.80
2015,06,29,08,02,21.80
2015,06,29,08,03,21.90
2015,06,29,08,04,21.90
2015,06,29,08,05,22.00
2015,06,29,08,06,22.00
2015,06,29,08,07,22.10
2015,06,29,08,08,22.10
2015,06,29,08,09,22.10
2015,06,29,08,10,22.10
2015,06,29,08,11,22.20
2015,06,29,08,12,22.20
2015,06,29,08,13,22.10
2015,06,29,08,14,22.10
2015,06,29,08,15,22.10
2015,06,29,08,16,22.10
2015,06,29,08,17,22.10
2015,06,29,08,18,22.10
2015,06,29,08,19,22.10
2015,06,29,08,20,22.00
2015,06,29,08,21,22.00
2015,06,29,08,22,22.00
2015,06,29,08,23,22.00
2015,06,29,08,24,22.00
2015,06,29,08,25,22.00
2015,06,29,08,26,22.00
2015,06,29,08,27,22.00
2015,06,29,08,28,22.10
2015,06,29,08,29,22.10
2015,06,29,08,30,22.10
2015,06,29,08,31,22.10
2015,06,29,08,32,22.10
2015,06,29,08,33,22.10
2015,06,29,08,34,22.10
2015,06,29,08,35,22.10
2015,06,29,08,36,22.10
2015,06,29,08,37,22.10
2015,06,29,08,38,22.10
2015,06,29,08,39,22.10
2015,06,29,08,40,22.10
2015,06,29,08,41,22.10
2015,06,29,08,42,22.10
2015,06,29,08,43,22.10
2015,06,29,08,44,22.20
2015,06,29,08,45,22.20
2015,06,29,08,46,22.30
2015,06,29,08,47,22.30
2015,06,29,08,48,22.40
2015,06,29,08,49,22.50
2015,06,29,08,50,22.60
2015,06,29,08,51,22.60
2015,06,29,08,52,22.70
2015,06,29,08,53,22.80
2015,06,29,08,54,22.80
2015,06,29,08,55,22.80
2015,06,29,08,56,22.80
2015,06,29,08,57,22.80
2015,06,29,08,58,22.80
2015,06,29,08,59,22.80
2015,06,29,09,00,22.80
2015,06,29,09,01,22.90
2015,06,29,09,02,22.90
2015,06,29,09,03,23.00
2015,06,29,09,04,23.00
2015,06,29,09,05,23.10
2015,06,29,09,06,23.10
2015,06,29,09,07,23.20
2015,06,29,09,08,23.30
2015,06,29,09,09,23.40
2015,06,29,09,10,23.50
2015,06,29,09,11,23.60
2015,06,29,09,12,23.70
2015,06,29,09,13,23.80
2015,06,29,09,14,23.90
2015,06,29,09,15,24.00
2015,06,29,09,16,24.10
2015,06,29,09,17,24.10
2015,06,29,09,18,24.10
2015,06,29,09,19,24.20
2015,06,29,09,20,24.10
2015,06,29,09,21,24.00
2015,06,29,09,22,23.90
2015,06,29,09,23,23.80
2015,06,29,09,24,23.70
2015,06,29,09,25,23.50
2015,06,29,09,26,23.40
2015,06,29,09,27,23.40
2015,06,29,09,28,23.40
2015,06,29,09,29,23.30
2015,06,29,09,30,23.30
2015,06,29,09,31,23.30
2015,06,29,09,32,23.30
2015,06,29,09,33,23.40
2015,06,29,09,34,23.40
2015,06,29,09,35,23.40
2015,06,29,09,36,23.40
2015,06,29,09,37,23.40
2015,06,29,09,38,23.30
2015,06,29,09,39,23.30
2015,06,29,09,40,23.30
2015,06,29,09,41,23.30
2015,06,29,09,42,23.20
2015,06,29,09,43,23.20
2015,06,29,09,44,23.20
2015,06,29,09,45,23.20
2015,06,29,09,46,23.10
2015,06,29,09,47,23.10
2015,06,29,09,48,23.10
2015,06,29,09,49,23.10
2015,06,29,09,50,23.10
2015,06,29,09,51,23.10
2015,06,29,09,52,23.10
2015,06,29,09,53,23.10
2015,06,29,09,54,23.10
2015,06,29,09,55,23.10
2015,06,29,09,56,23.10
2015,06,29,09,57,23.10
2015,06,29,09,58,23.10
2015,06,29,09,59,23.00
2015,06,29,10,00,23.00
2015,06,29,10,01,23.00
2015,06,29,10,02,23.00
2015,06,29,10,03,23.00
2015,06,29,10,04,23.00
2015,06,29,10,05,23.00
2015,06,29,10,06,23.00
2015,06,29,10,07,23.00
2015,06,29,10,08,23.00
2015,06,29,10,09,23.00
2015,06,29,10,10,23.00
2015,06,29,10,11,23.00
2015,06,29,10,12,23.00
2015,06,29,10,13,23.00
2015,06,29,10,14,23.00
2015,06,29,10,15,23.00
2015,06,29,10,16,23.00
2015,06,29,10,17,23.00
2015,06,29,10,18,23.00
2015,06,29,10,19,22.90
2015,06,29,10,20,22.90
2015,06,29,10,21,22.90
2015,06,29,10,22,22.90
2015,06,29,10,23,22.90
2015,06,29,10,24,22.90
2015,06,29,10,25,22.90
2015,06,29,10,26,22.90
2015,06,29,10,27,22.90
2015,06,29,10,28,22.90
2015,06,29,10,29,23.00
2015,06,29,10,30,23.00
2015,06,29,10,31,23.00
2015,06,29,10,32,23.00
2015,06,29,10,33,23.00
2015,06,29,10,34,23.00
2015,06,29,10,35,23.00
2015,06,29,10,36,22.90
2015,06,29,10,37,22.90
2015,06,29,10,38,22.90
2015,06,29,10,39,22.90
2015,06,29,10,40,22.90
2015,06,29,10,41,22.80
2015,06,29,10,42,22.80
2015,06,29,10,43,22.80
2015,06,29,10,44,22.80
2015,06,29,10,45,22.70
2015,06,29,10,46,22.70
2015,06,29,10,47,22.70
2015,06,29,10,48,22.70
2015,06,29,10,49,22.80
2015,06,29,10,50,22.80
2015,06,29,10,51,22.80
2015,06,29,10,52,22.80
2015,06,29,10,53,22.80
2015,06,29,10,54,22.70
2015,06,29,10,55,22.70
2015,06,29,10,56,22.70
2015,06,29,10,57,22.70
2015,06,29,10,58,22.70
2015,06,29,10,59,22.70
2015,06,29,11,00,22.60
2015,06,29,11,01,22.60
2015,06,29,11,02,22.60
2015,06,29,11,03,22.60
2015,06,29,11,04,22.50
2015,06,29,11,05,22.50
2015,06,29,11,06,22.40
2015,06,29,11,07,22.40
2015,06,29,11,08,22.40
2015,06,29,11,09,22.40
2015,06,29,11,10,22.40
2015,06,29,11,11,22.40
2015,06,29,11,12,22.30
2015,06,29,11,13,22.30
2015,06,29,11,14,22.30
2015,06,29,11,15,22.30
2015,06,29,11,16,22.30
2015,06,29,11,17,22.30
2015,06,29,11,18,22.30
2015,06,29,11,19,22.30
2015,06,29,11,20,22.30
2015,06,29,11,21,22.30
2015,06,29,11,22,22.30
2015,06,29,11,23,22.30
2015,06,29,11,24,22.30
2015,06,29,11,25,22.40
2015,06,29,11,26,22.40
2015,06,29,11,27,22.40
2015,06,29,11,28,22.40
2015,06,29,11,29,22.40
2015,06,29,11,30,22.40
2015,06,29,11,31,22.40
2015,06,29,11,32,22.40
2015,06,29,11,33,22.30
2015,06,29,11,34,22.30
2015,06,29,11,35,22.30
2015,06,29,11,36,22.30
2015,06,29,11,37,22.30
2015,06,29,11,38,22.30
2015,06,29,11,39,22.30
2015,06,29,11,40,22.30
2015,06,29,11,41,22.30
2015,06,29,11,42,22.30
2015,06,29,11,43,22.30
2015,06,29,11,44,22.40
2015,06,29,11,45,22.40
2015,06,29,11,46,22.40
2015,06,29,11,47,22.40
2015,06,29,11,48,22.40
2015,06,29,11,49,22.40
2015,06,29,11,50,22.40
2015,06,29,11,51,22.40
2015,06,29,11,52,22.40
2015,06,29,11,53,22.40
2015,06,29,11,54,22.40
2015,06,29,11,55,22.40
2015,06,29,11,56,22.40
2015,06,29,11,57,22.40
2015,06,29,11,58,22.50
2015,06,29,11,59,22.50
2015,06,29,12,00,22.50
2015,06,29,12,01,22.50
2015,06,29,12,02,22.60
2015,06,29,12,03,22.60
2015,06,29,12,04,22.60
2015,06,29,12,05,22.70
2015,06,29,12,06,22.70
2015,06,29,12,07,22.70
2015,06,29,12,08,22.80
2015,06,29,12,09,22.80
2015,06,29,12,10,22.80
2015,06,29,12,11,22.80
2015,06,29,12,12,22.80
2015,06,29,12,13,22.80
2015,06,29,12,14,22.80
2015,06,29,12,15,22.80
2015,06,29,12,16,22.80
2015,06,29,12,17,22.80
2015,06,29,12,18,22.80
2015,06,29,12,19,22.90
2015,06,29,12,20,23.00
2015,06,29,12,21,23.10
2015,06,29,12,22,23.10
2015,06,29,12,23,23.20
2015,06,29,12,24,23.30
2015,06,29,12,25,23.40
2015,06,29,12,26,23.40
2015,06,29,12,27,23.40
2015,06,29,12,28,23.50
2015,06,29,12,29,23.70
2015,06,29,12,30,23.80
2015,06,29,12,31,23.80
2015,06,29,12,32,23.80
2015,06,29,12,33,23.90
2015,06,29,12,34,23.90
2015,06,29,12,35,23.90
2015,06,29,12,36,23.90
2015,06,29,12,37,23.90
2015,06,29,12,38,23.90
2015,06,29,12,39,23.90
2015,06,29,12,40,23.90
2015,06,29,12,41,23.90
2015,06,29,12,42,23.90
2015,06,29,12,43,24.00
2015,06,29,12,44,24.00
2015,06,29,12,45,24.10
2015,06,29,12,46,24.20
2015,06,29,12,47,24.20
2015,06,29,12,48,24.30
2015,06,29,12,49,24.30
2015,06,29,12,50,24.30
2015,06,29,12,51,24.40
2015,06,29,12,52,24.40
2015,06,29,12,53,24.50
2015,06,29,12,54,24.50
2015,06,29,12,55,24.40
2015,06,29,12,56,24.40
2015,06,29,12,57,24.40
2015,06,29,12,58,24.50
2015,06,29,12,59,24.50
2015,06,29,13,00,24.60
2015,06,29,13,01,24.70
2015,06,29,13,02,24.80
2015,06,29,13,03,24.70
2015,06,29,13,04,24.70
2015,06,29,13,05,24.80
2015,06,29,13,06,24.80
2015,06,29,13,07,24.80
2015,06,29,13,08,24.80
2015,06,29,13,09,24.70
2015,06,29,13,10,24.80
2015,06,29,13,11,24.80
2015,06,29,13,12,24.90
2015,06,29,13,13,24.90
2015,06,29,13,14,25.00
2015,06,29,13,15,25.10
2015,06,29,13,16,25.20
2015,06,29,13,17,25.30
2015,06,29,13,18,25.40
2015,06,29,13,19,25.50
2015,06,29,13,20,25.60
2015,06,29,13,21,25.60
2015,06,29,13,22,25.60
2015,06,29,13,23,25.60
2015,06,29,13,24,25.60
2015,06,29,13,25,25.60
2015,06,29,13,26,25.50
2015,06,29,13,27,25.50
2015,06,29,13,28,25.40
2015,06,29,13,29,25.40
2015,06,29,13,30,25.30
2015,06,29,13,31,25.30
2015,06,29,13,32,25.30
2015,06,29,13,33,25.30
2015,06,29,13,34,25.30
2015,06,29,13,35,25.30
2015,06,29,13,36,25.30
2015,06,29,13,37,25.30
2015,06,29,13,38,25.30
2015,06,29,13,39,25.30
2015,06,29,13,40,25.30
2015,06,29,13,41,25.30
2015,06,29,13,42,25.30
2015,06,29,13,43,25.40
2015,06,29,13,44,25.50
2015,06,29,13,45,25.60
2015,06,29,13,46,25.70
2015,06,29,13,47,25.80
2015,06,29,13,48,25.80
2015,06,29,13,49,25.80
2015,06,29,13,50,25.90
2015,06,29,13,51,25.90
2015,06,29,13,52,26.00
2015,06,29,13,53,26.10
2015,06,29,13,54,26.10
2015,06,29,13,55,26.20
2015,06,29,13,56,26.30
2015,06,29,13,57,26.40
2015,06,29,13,58,26.40
2015,06,29,13,59,26.50
2015,06,29,14,00,26.60
2015,06,29,14,01,26.70
2015,06,29,14,02,26.80
2015,06,29,14,03,26.90
2015,06,29,14,04,26.90
2015,06,29,14,05,27.00
2015,06,29,14,06,27.00
2015,06,29,14,07,27.00
2015,06,29,14,08,27.00
2015,06,29,14,09,27.00
2015,06,29,14,10,27.00
2015,06,29,14,11,27.00
2015,06,29,14,12,26.90
2015,06,29,14,13,26.90
2015,06,29,14,14,26.90
2015,06,29,14,15,26.80
2015,06,29,14,16,26.80
2015,06,29,14,17,26.80
2015,06,29,14,18,26.90
2015,06,29,14,19,26.90
2015,06,29,14,20,27.10
2015,06,29,14,21,27.20
2015,06,29,14,22,27.30
2015,06,29,14,23,27.30
2015,06,29,14,24,27.40
2015,06,29,14,25,27.40
2015,06,29,14,26,27.50
2015,06,29,14,27,27.50
2015,06,29,14,28,27.50
2015,06,29,14,29,27.50
2015,06,29,14,30,27.50
2015,06,29,14,31,27.60
2015,06,29,14,32,27.60
2015,06,29,14,33,27.70
2015,06,29,14,34,27.70
2015,06,29,14,35,27.80
2015,06,29,14,36,27.90
2015,06,29,14,37,28.10
2015,06,29,14,38,28.20
2015,06,29,14,39,28.30
2015,06,29,14,40,28.40
2015,06,29,14,41,28.40
2015,06,29,14,42,28.40
2015,06,29,14,43,28.40
2015,06,29,14,44,28.50
2015,06,29,14,45,28.60
2015,06,29,14,46,28.60
2015,06,29,14,47,28.60
2015,06,29,14,48,28.70
2015,06,29,14,49,28.70
2015,06,29,14,50,28.70
2015,06,29,14,51,28.70
2015,06,29,14,52,28.70
2015,06,29,14,53,28.80
2015,06,29,14,54,28.80
2015,06,29,14,55,28.80
2015,06,29,14,56,28.80
2015,06,29,14,57,28.70
2015,06,29,14,58,28.70
2015,06,29,14,59,28.70
2015,06,29,15,00,28.70
2015,06,29,15,01,28.80
2015,06,29,15,02,28.80
2015,06,29,15,03,28.90
2015,06,29,15,04,29.00
2015,06,29,15,05,29.10
2015,06,29,15,06,29.20
2015,06,29,15,07,29.40
2015,06,29,15,08,29.40
2015,06,29,15,09,29.50
2015,06,29,15,10,29.50
2015,06,29,15,11,29.60
2015,06,29,15,12,29.60
2015,06,29,15,13,29.60
2015,06,29,15,14,29.60
2015,06,29,15,15,29.60
2015,06,29,15,16,29.60
2015,06,29,15,17,29.70
2015,06,29,15,18,29.60
2015,06,29,15,19,29.60
2015,06,29,15,20,29.60
2015,06,29,15,21,29.60
2015,06,29,15,22,29.60
2015,06,29,15,23,29.60
2015,06,29,15,24,29.70
2015,06,29,15,25,29.80
2015,06,29,15,26,29.80
2015,06,29,15,27,29.90
2015,06,29,15,28,29.90
2015,06,29,15,29,29.90
2015,06,29,15,30,29.90
2015,06,29,15,31,30.00
2015,06,29,15,32,30.00
2015,06,29,15,33,30.00
2015,06,29,15,34,30.00
2015,06,29,15,35,30.00
2015,06,29,15,36,30.00
2015,06,29,15,37,30.10
2015,06,29,15,38,30.10
2015,06,29,15,39,30.20
2015,06,29,15,40,30.20
2015,06,29,15,41,30.30
2015,06,29,15,42,30.20
2015,06,29,15,43,30.20
2015,06,29,15,44,30.20
2015,06,29,15,45,30.20
2015,06,29,15,46,30.10
2015,06,29,15,47,30.10
2015,06,29,15,48,30.10
2015,06,29,15,49,30.10
2015,06,29,15,50,30.10
2015,06,29,15,51,30.10
2015,06,29,15,52,30.10
2015,06,29,15,53,30.20
2015,06,29,15,54,30.20
2015,06,29,15,55,30.20
2015,06,29,15,56,30.20
2015,06,29,15,57,30.20
2015,06,29,15,58,30.20
2015,06,29,15,59,30.10
2015,06,29,16,00,30.10
2015,06,29,16,01,30.10
2015,06,29,16,02,30.00
2015,06,29,16,03,29.90
2015,06,29,16,04,29.90
2015,06,29,16,05,29.80
2015,06,29,16,06,29.80
2015,06,29,16,07,29.80
2015,06,29,16,08,29.80
2015,06,29,16,09,29.80
2015,06,29,16,10,29.80
2015,06,29,16,11,29.70
2015,06,29,16,12,29.70
2015,06,29,16,13,29.70
2015,06,29,16,14,29.70
2015,06,29,16,15,29.70
2015,06,29,16,16,29.80
2015,06,29,16,17,29.80
2015,06,29,16,18,29.80
2015,06,29,16,19,29.80
2015,06,29,16,20,29.90
2015,06,29,16,21,29.90
2015,06,29,16,22,29.90
2015,06,29,16,23,29.90
2015,06,29,16,24,29.90
2015,06,29,16,25,29.80
2015,06,29,16,26,29.80
2015,06,29,16,27,29.70
2015,06,29,16,28,29.70
2015,06,29,16,29,29.70
2015,06,29,16,30,29.70
2015,06,29,16,31,29.80
2015,06,29,16,32,29.80
2015,06,29,16,33,29.80
2015,06,29,16,34,29.80
2015,06,29,16,35,29.80
2015,06,29,16,36,29.80
2015,06,29,16,37,29.60
2015,06,29,16,38,29.60
2015,06,29,16,39,29.50
2015,06,29,16,40,29.50
2015,06,29,16,41,29.50
2015,06,29,16,42,29.50
2015,06,29,16,43,29.50
2015,06,29,16,44,29.50
2015,06,29,16,45,29.40
2015,06,29,16,46,29.40
2015,06,29,16,47,29.40
2015,06,29,16,48,29.40
2015,06,29,16,49,29.30
2015,06,29,16,50,29.30
2015,06,29,16,51,29.30
2015,06,29,16,52,29.30
2015,06,29,16,53,29.20
2015,06,29,16,54,29.20
2015,06,29,16,55,29.20
2015,06,29,16,56,29.20
2015,06,29,16,57,29.30
2015,06,29,16,58,29.40
2015,06,29,16,59,29.40
2015,06,29,17,00,29.60
2015,06,29,17,01,29.70
2015,06,29,17,02,29.70
2015,06,29,17,03,29.80
2015,06,29,17,04,29.90
2015,06,29,17,05,30.00
2015,06,29,17,06,30.10
2015,06,29,17,07,30.10
2015,06,29,17,08,30.20
2015,06,29,17,09,30.30
2015,06,29,17,10,30.30
2015,06,29,17,11,30.30
2015,06,29,17,12,30.30
2015,06,29,17,13,30.40
2015,06,29,17,14,30.40
2015,06,29,17,15,30.50
2015,06,29,17,16,30.60
2015,06,29,17,17,30.60
2015,06,29,17,18,30.60
2015,06,29,17,19,30.60
2015,06,29,17,20,30.60
2015,06,29,17,21,30.60
2015,06,29,17,22,30.60
2015,06,29,17,23,30.60
2015,06,29,17,24,30.70
2015,06,29,17,25,30.70
2015,06,29,17,26,30.80
2015,06,29,17,27,30.90
2015,06,29,17,28,31.00
2015,06,29,17,29,31.10
2015,06,29,17,30,31.10
2015,06,29,17,31,31.10
2015,06,29,17,32,31.00
2015,06,29,17,33,30.80
2015,06,29,17,34,30.70
2015,06,29,17,35,30.60
2015,06,29,17,36,30.50
2015,06,29,17,37,30.50
2015,06,29,17,38,30.50
2015,06,29,17,39,30.40
2015,06,29,17,40,30.40
2015,06,29,17,41,30.30
2015,06,29,17,42,30.30
2015,06,29,17,43,30.30
2015,06,29,17,44,30.30
2015,06,29,17,45,30.30
2015,06,29,17,46,30.30
2015,06,29,17,47,30.30
2015,06,29,17,48,30.30
2015,06,29,17,49,30.30
2015,06,29,17,50,30.30
2015,06,29,17,51,30.40
2015,06,29,17,52,30.40
2015,06,29,17,53,30.50
2015,06,29,17,54,30.50
2015,06,29,17,55,30.60
2015,06,29,17,56,30.60
2015,06,29,17,57,30.60
2015,06,29,17,58,30.60
2015,06,29,17,59,30.60
2015,06,29,18,00,30.60
2015,06,29,18,01,30.70
2015,06,29,18,02,30.70
2015,06,29,18,03,30.70
2015,06,29,18,04,30.80
2015,06,29,18,05,30.80
2015,06,29,18,06,30.90
2015,06,29,18,07,30.90
2015,06,29,18,08,30.90
2015,06,29,18,09,30.90
2015,06,29,18,10,31.00
2015,06,29,18,11,31.00
2015,06,29,18,12,31.00
2015,06,29,18,13,31.10